Wind_Speed
22 23 23 24 25 25 26 27 28 28 29 31 32 33 33 33 34 34 35 35 35 35 35 35 35 35 34 34 35 35 35 36 36 36 37 37 37 37 37 37 37 36
23 24 25 25 26 26 27 28 28 29 30 31 33 34 34 35 35 36 37 37 37 37 37 37 36 35 35 35 35 36 36 36 37 37 37 37 37 38 38 38 38 38
25 26 26 27 27 28 28 29 29 30 31 32 34 35 35 36 37 37 38 38 39 39 39 38 36 36 36 36 37 37 37 37 37 37 37 37 38 38 38 39 39 39
27 28 28 29 29 29 29 30 30 31 32 34 35 36 37 37 38 39 39 39 40 40 40 38 37 37 38 38 38 38 37 37 37 37 38 37 38 38 39 39 40 40
27 28 29 30 30 31 31 31 31 32 34 35 36 38 38 39 39 40 40 41 41 41 40 38 38 39 39 39 38 38 37 37 37 37 37 37 38 38 39 39 40 40
27 28 29 30 31 31 32 32 33 34 35 36 38 39 39 39 40 40 41 41 41 40 39 39 39 40 40 39 38 37 37 37 37 37 37 38 38 38 39 39 40 40
29 30 30 30 31 32 32 33 34 35 36 37 38 39 39 40 40 41 42 41 40 39 39 39 40 40 40 39 38 38 37 37 37 37 37 37 38 38 39 39 40 40
32 31 31 31 32 32 33 34 34 35 36 37 38 38 39 40 41 42 42 41 40 40 40 40 40 40 39 38 38 38 38 37 37 37 37 37 37 37 38 39 39 40
32 32 32 32 32 33 33 34 34 35 36 37 37 38 39 41 42 42 41 40 40 40 40 40 40 40 39 38 38 38 38 37 36 36 36 36 37 38 38 39 40 41
31 31 30 31 32 32 33 34 34 35 35 36 37 38 40 41 41 40 40 40 40 40 40 40 40 39 39 38 38 38 37 37 37 37 37 38 38 39 40 41 42 44
30 29 29 30 31 32 33 33 34 34 35 36 37 39 40 40 39 39 39 40 40 40 40 40 40 39 39 39 38 38 38 38 38 39 39 40 41 42 43 44 45 46
30 29 28 29 30 31 32 33 34 34 35 36 37 38 38 38 39 39 40 40 40 40 40 40 39 39 39 39 38 39 39 39 40 41 42 43 44 45 46 46 47 48
30 30 29 30 30 32 33 34 34 35 36 36 37 37 37 38 38 39 40 40 40 40 40 39 39 39 39 39 39 40 40 41 42 43 44 45 45 46 46 47 48 49
29 30 30 30 31 32 34 34 35 35 35 36 36 37 37 37 38 39 40 40 40 39 39 39 39 39 39 40 40 41 42 43 44 44 45 45 46 46 47 48 48 49
29 29 29 31 32 33 34 35 35 34 35 35 36 36 36 37 38 39 39 39 38 38 39 40 40 40 40 40 41 42 43 44 44 45 45 46 46 47 48 48 49 49
29 29 30 31 33 34 34 33 33 33 34 34 35 35 36 37 38 38 38 38 38 39 40 40 40 40 41 42 43 43 44 44 45 45 46 46 47 47 48 49 50 50
30 31 32 32 33 33 31 30 31 31 33 33 34 35 36 36 37 37 37 37 38 39 40 40 40 41 42 43 43 44 44 44 45 46 47 47 48 48 49 49 49 49
29 30 30 29 29 29 28 28 30 31 32 33 34 34 35 35 36 36 37 38 39 39 39 40 41 42 43 43 43 43 44 45 46 47 47 48 48 49 48 48 47 47
26 25 25 25 25 26 27 28 30 31 32 32 33 33 34 35 35 36 37 38 38 39 39 40 41 42 42 43 43 44 45 46 47 47 48 48 48 47 47 47 47 47
27 25 24 25 25 26 27 28 29 30 30 31 32 33 33 34 35 36 37 37 38 39 39 40 40 41 42 42 43 45 46 47 47 47 47 47 47 47 47 47 47 48
26 25 24 24 24 25 26 27 28 29 29 31 32 32 33 34 35 36 36 37 38 38 39 39 39 40 41 42 44 45 45 46 46 46 46 46 46 47 47 48 48 49
24 24 23 23 24 25 26 27 28 29 30 31 32 32 33 34 35 36 37 37 38 38 38 39 39 40 41 42 43 44 44 44 43 44 44 45 46 47 47 48 48 49
23 23 23 24 25 26 27 27 29 30 30 31 31 32 33 34 35 36 36 37 37 37 38 38 39 40 41 42 42 42 42 42 42 43 45 46 46 46 46 47 48 49
22 22 23 24 25 26 27 28 29 29 29 30 31 32 33 34 35 35 35 36 36 37 37 38 39 40 41 41 40 40 40 41 42 44 45 45 45 45 46 47 48 49
22 23 24 25 26 27 27 28 28 28 29 30 31 32 33 34 34 34 34 35 35 36 38 39 40 40 39 39 39 39 40 42 43 44 44 44 44 44 46 47 48 49
22 23 24 25 26 26 27 27 27 28 29 30 31 32 33 33 33 33 34 34 36 37 38 39 39 38 38 38 38 39 41 42 43 43 43 43 43 45 46 47 48 50
Wind_Direction
280 281 282 283 284 285 286 288 290 292 294 296 297 299 301 302 303 304 304 305 305 306 306 305 303 302 300 299 298 298 296 295 294 293 292 291 290 289 288 288 287 287
277 278 279 281 282 283 285 287 289 292 293 294 295 297 299 300 301 302 303 304 306 307 307 307 305 304 302 301 300 299 298 297 295 293 292 291 290 289 288 288 287 286
276 277 278 279 281 282 284 286 289 290 291 292 292 294 296 297 299 300 302 303 305 306 308 308 306 305 304 303 302 300 299 297 296 294 293 291 290 288 288 287 286 285
277 278 278 279 280 282 284 286 287 288 288 289 289 291 293 295 297 299 301 303 305 306 307 307 306 305 304 303 301 300 298 296 295 293 292 291 289 288 287 286 285 284
280 280 280 281 282 283 284 285 285 285 285 286 287 289 291 293 295 298 300 303 305 306 306 306 305 305 304 303 301 299 298 296 294 292 291 290 289 287 286 285 284 284
281 281 281 282 282 283 283 282 282 282 282 283 284 286 289 292 295 297 300 303 305 306 306 305 305 304 303 302 301 299 298 296 294 293 291 290 289 288 287 286 285 284
280 279 279 279 280 280 280 279 279 280 280 281 282 285 289 292 294 297 300 303 304 305 305 305 304 304 303 302 301 300 298 297 295 293 292 290 289 288 288 287 286 286
279 278 276 277 277 277 277 277 278 278 278 280 282 286 289 292 295 298 300 302 303 304 305 304 304 303 303 302 302 301 299 298 296 295 294 293 292 291 290 289 289 288
279 277 275 274 274 275 275 276 276 277 278 280 283 286 289 293 296 299 300 302 304 305 305 305 304 304 304 303 302 301 300 298 297 296 295 294 294 293 292 292 291 290
278 276 274 273 273 273 274 275 276 277 279 281 284 287 291 294 297 299 301 303 305 305 305 305 305 304 304 303 302 300 299 297 297 296 295 294 294 293 292 291 290 289
277 276 274 272 272 273 274 276 277 277 279 281 285 289 293 295 298 300 302 304 305 305 305 305 304 304 303 302 301 299 298 297 297 296 296 295 294 293 292 291 291 290
276 275 274 274 274 275 276 277 277 277 279 283 287 291 294 296 299 301 303 304 305 305 305 304 303 303 302 301 300 299 298 297 297 296 296 296 296 296 295 294 294 293
275 273 274 275 276 277 277 277 277 278 281 285 289 292 295 297 299 302 303 304 304 304 303 303 302 302 301 300 298 298 297 298 298 298 298 298 298 298 298 297 297 296
276 274 275 277 278 278 278 277 278 281 285 289 291 293 295 297 299 301 302 303 303 302 302 301 301 300 299 299 298 298 299 299 300 300 300 300 300 300 299 298 298 297
279 278 278 278 278 278 277 277 280 284 288 290 292 293 295 297 299 301 302 302 301 300 300 300 300 299 299 299 299 300 300 301 301 301 301 301 301 301 300 300 299 298
283 282 280 279 277 276 276 279 283 287 289 290 291 293 295 298 299 300 301 300 300 300 300 300 300 300 300 301 301 302 302 302 302 302 302 302 302 302 302 301 301 300
285 282 278 277 276 277 279 283 286 287 288 289 292 294 296 298 299 300 300 300 299 300 300 300 300 301 301 302 302 303 303 303 304 304 305 305 304 304 303 303 302 301
288 284 280 279 279 280 282 284 284 286 288 290 293 295 297 298 299 299 299 299 299 299 300 301 302 302 303 303 304 304 305 306 306 306 306 306 306 305 304 304 303 303
289 289 287 285 284 283 283 283 285 287 290 292 295 296 298 298 299 299 298 298 299 300 301 302 303 304 304 305 306 306 307 308 308 308 307 307 307 307 306 306 305 305
287 287 285 284 283 283 283 285 288 290 293 295 297 298 298 298 298 298 298 299 300 301 303 304 304 305 306 307 308 308 309 309 309 309 309 310 310 310 309 309 309 309
285 285 284 283 283 285 286 289 292 294 296 297 298 298 298 298 298 299 300 301 302 303 304 305 306 307 308 309 309 309 310 311 311 312 313 313 313 314 313 313 313 313
284 286 287 287 288 290 292 294 296 297 298 298 298 298 298 299 299 300 302 303 304 305 306 307 308 308 309 309 310 311 312 313 314 315 316 317 317 318 318 317 317 316
284 286 288 290 292 294 296 297 297 298 298 298 299 298 299 299 300 302 303 304 305 306 306 307 308 308 309 310 311 313 315 316 317 318 319 320 320 321 321 321 320 319
285 287 289 292 293 295 296 297 297 297 298 298 298 298 299 300 301 302 304 305 305 306 307 307 308 309 311 312 314 316 317 318 319 321 321 322 323 323 323 323 322 322
286 289 291 293 295 296 296 296 297 297 297 297 297 298 299 301 302 303 304 305 306 307 308 309 310 311 313 315 316 318 319 320 322 323 324 325 325 326 326 326 326 326
288 291 293 294 295 295 295 296 296 296 296 297 297 299 300 302 303 304 305 306 307 308 310 311 312 314 316 318 319 320 322 324 325 326 326 327 327 328 328 329 329 329
Height
5818 5817 5817 5816 5816 5815 5814 5814 5813 5812 5811 5810 5809 5809 5808 5807 5806 5804 5803 5802 5800 5798 5797 5795 5793 5791 5789 5788 5786 5784 5783 5781 5780 5778 5776 5775 5773 5772 5770 5769 5768 5766
5815 5814 5814 5814 5813 5812 5812 5811 5810 5809 5809 5808 5807 5806 5805 5804 5803 5801 5800 5798 5796 5795 5793 5791 5789 5787 5785 5783 5782 5780 5778 5777 5775 5774 5772 5770 5769 5767 5766 5764 5763 5762
5812 5812 5811 5811 5810 5809 5809 5808 5807 5807 5806 5805 5804 5803 5802 5801 5799 5798 5796 5795 5793 5791 5789 5787 5785 5783 5781 5779 5778 5776 5774 5772 5771 5769 5767 5766 5764 5763 5761 5760 5759 5757
5810 5809 5809 5808 5807 5807 5806 5805 5804 5804 5803 5802 5801 5799 5798 5797 5796 5794 5793 5791 5789 5787 5785 5783 5781 5779 5777 5775 5773 5771 5769 5768 5766 5764 5762 5761 5759 5758 5756 5755 5754 5752
5807 5806 5806 5805 5804 5803 5803 5802 5801 5800 5799 5798 5797 5796 5795 5793 5792 5791 5789 5787 5785 5783 5781 5779 5777 5775 5773 5771 5769 5767 5765 5763 5761 5759 5758 5756 5754 5753 5751 5750 5748 5747
5804 5803 5803 5802 5801 5800 5800 5799 5798 5797 5796 5795 5793 5792 5791 5790 5788 5787 5785 5783 5781 5779 5777 5775 5773 5771 5769 5766 5764 5762 5760 5758 5756 5755 5753 5751 5749 5748 5746 5745 5743 5742
5800 5800 5799 5798 5798 5797 5796 5795 5794 5793 5792 5791 5790 5788 5787 5786 5785 5783 5781 5779 5777 5775 5773 5771 5769 5766 5764 5762 5760 5758 5756 5754 5752 5750 5748 5746 5744 5743 5741 5739 5738 5736
5797 5796 5795 5795 5794 5793 5792 5791 5790 5789 5788 5787 5786 5785 5784 5782 5781 5779 5777 5775 5773 5771 5769 5766 5764 5762 5760 5757 5755 5753 5751 5749 5747 5745 5743 5741 5740 5738 5736 5734 5732 5731
5793 5792 5791 5791 5790 5789 5788 5787 5786 5785 5784 5783 5782 5781 5780 5778 5776 5775 5773 5771 5768 5766 5764 5762 5760 5757 5755 5753 5751 5749 5747 5745 5743 5741 5739 5737 5735 5733 5731 5729 5727 5725
5789 5788 5787 5787 5786 5785 5784 5783 5783 5782 5781 5780 5779 5777 5776 5774 5772 5770 5768 5766 5764 5762 5759 5757 5755 5753 5750 5748 5746 5744 5742 5740 5738 5736 5734 5732 5730 5728 5726 5724 5722 5720
5785 5784 5783 5782 5782 5781 5780 5780 5779 5778 5777 5776 5775 5773 5772 5770 5768 5766 5764 5762 5759 5757 5755 5753 5750 5748 5746 5744 5742 5740 5738 5735 5733 5731 5729 5727 5725 5722 5720 5718 5716 5714
5781 5780 5779 5778 5778 5777 5777 5776 5775 5774 5773 5772 5771 5769 5767 5766 5764 5762 5760 5757 5755 5753 5750 5748 5746 5744 5742 5740 5737 5735 5733 5731 5728 5726 5723 5721 5719 5716 5714 5712 5709 5707
5776 5776 5775 5775 5774 5773 5773 5772 5771 5770 5769 5768 5767 5765 5763 5761 5759 5757 5755 5753 5751 5748 5746 5744 5742 5740 5737 5735 5733 5731 5728 5726 5723 5720 5718 5715 5713 5710 5708 5705 5702 5699
5772 5772 5771 5771 5770 5769 5768 5768 5767 5766 5765 5764 5762 5761 5759 5757 5755 5753 5751 5749 5746 5744 5742 5740 5738 5736 5733 5731 5728 5726 5723 5721 5718 5715 5712 5710 5707 5704 5701 5699 5696 5693
5768 5768 5767 5767 5766 5765 5764 5764 5763 5762 5761 5760 5758 5757 5755 5753 5751 5749 5746 5744 5742 5740 5738 5736 5733 5731 5729 5726 5724 5721 5718 5716 5713 5710 5707 5704 5701 5698 5695 5692 5689 5686
5764 5764 5763 5762 5762 5761 5760 5760 5759 5759 5757 5756 5754 5753 5751 5749 5747 5744 5742 5740 5738 5736 5733 5731 5729 5726 5724 5721 5719 5716 5713 5710 5707 5704 5701 5699 5696 5692 5689 5686 5682 5679
5760 5759 5759 5758 5758 5757 5757 5756 5756 5755 5754 5752 5750 5748 5746 5744 5742 5740 5738 5736 5734 5731 5729 5726 5724 5722 5719 5716 5714 5711 5708 5704 5701 5699 5695 5692 5689 5686 5683 5679 5676 5672
5756 5755 5755 5755 5755 5754 5754 5753 5752 5751 5750 5748 5746 5744 5742 5740 5738 5736 5734 5732 5729 5727 5724 5722 5719 5717 5714 5711 5708 5706 5702 5699 5696 5693 5689 5686 5683 5680 5676 5673 5669 5666
5753 5753 5753 5752 5752 5751 5750 5750 5749 5747 5746 5744 5742 5740 5738 5736 5734 5732 5730 5728 5725 5723 5720 5718 5715 5712 5709 5706 5703 5700 5697 5694 5690 5687 5683 5680 5677 5673 5670 5666 5663 5659
5750 5751 5751 5750 5749 5748 5747 5746 5745 5743 5742 5740 5738 5736 5734 5732 5730 5728 5726 5724 5721 5719 5716 5713 5710 5707 5704 5701 5698 5695 5692 5688 5685 5681 5677 5674 5670 5667 5663 5659 5655 5652
5747 5747 5747 5746 5745 5745 5744 5742 5741 5739 5738 5736 5734 5732 5730 5728 5726 5724 5722 5720 5717 5715 5712 5709 5706 5703 5700 5697 5693 5690 5687 5683 5679 5676 5672 5668 5664 5660 5656 5652 5648 5644
5744 5744 5743 5742 5742 5741 5739 5738 5737 5735 5734 5732 5730 5728 5726 5724 5722 5720 5718 5715 5713 5711 5708 5705 5702 5699 5696 5692 5689 5685 5682 5678 5675 5671 5667 5663 5659 5655 5650 5646 5641 5637
5740 5740 5739 5739 5738 5737 5736 5734 5733 5731 5730 5728 5726 5724 5722 5720 5718 5716 5714 5712 5709 5707 5704 5701 5699 5695 5692 5689 5685 5681 5677 5674 5670 5667 5662 5658 5654 5649 5645 5640 5636 5631
5737 5737 5736 5735 5734 5733 5732 5731 5729 5728 5726 5724 5722 5721 5719 5717 5715 5713 5710 5708 5706 5703 5700 5698 5695 5691 5688 5684 5681 5677 5673 5669 5666 5662 5658 5653 5649 5644 5640 5635 5630 5625
5734 5733 5733 5732 5731 5730 5729 5727 5726 5724 5722 5721 5719 5717 5716 5714 5711 5709 5707 5704 5702 5699 5696 5694 5690 5687 5683 5680 5676 5673 5669 5665 5661 5657 5653 5648 5644 5640 5635 5630 5625 5620
5730 5730 5729 5728 5727 5726 5725 5724 5722 5721 5719 5717 5716 5714 5712 5710 5708 5706 5703 5701 5698 5695 5692 5689 5686 5682 5679 5676 5672 5669 5665 5661 5656 5652 5648 5644 5640 5635 5630 5625 5620 5614